www.pogodaiklimat.ru

Погода и климат >> Архив погоды >> Канада >> Toronto


АРХИВ ПОГОДЫ в Toronto

Время (UTC), дата Ветер
(напр.,м/с)
 
Видим.   Явления Облачность Т
(С)
Тd
(С)
f
(%)
Тe
(С)
Тes
(С)
Комфортность P
(гПа)
Po
(гПа)
Тmin
(С)
Tmax
(С)
R
(мм)
R24
(мм)
S
(см)
09 11.10 СВ 3 24 км 9/9 1000 м
[]
+13.1 +5.2 59 +12 +12 тепло 1022.4 1001.5
12 11.10 СВ 4 24 км слабый дождь 10/4 1500 м
[Sc Ac As]
+11.0 +5.3 68 +9 +9 тепло 1024.0 1002.9 +10.7 +23.0 0.2
15 11.10 СВ 6 24 км 10/0 2000 м
[]
+10.3 +4.6 68 +7 +8 по сезону 1024.8 1003.7
18 11.10 СВ 5 24 км слабый дождь 10/1 600 м
[Sc Ac As]
+9.9 +5.2 73 +7 +8 холодно 1023.8 1002.7 +9.3 +13.5 0.4
21 11.10 СВ 5 24 км 10/0
[]
+9.4 +4.3 70 +6 +7 холодно 1023.5 1002.4
00 12.10 СВ 6 24 км в посл. час дождь 9/3 600 м
[Sc Ac As]
+7.5 +5.5 87 +3 +3 холодно 1024.5 1003.3 +7.5 +11.2 2
03 12.10 СВ 5 24 км 9/9 1000 м
[]
+7.6 +4.0 78 +4 +4 прохладно 1025.5 1004.2
06 12.10 СВ 5 24 км {дождь} 8/3 1500 м
[Sc Ac As]
+8.2 +3.0 70 +5 +5 по сезону 1025.2 1003.9 +7.5 +13.5 0.0 161
09 12.10 СВ 5 24 км 10/10 300 м
[]
+8.1 +2.8 69 +5 +5 по сезону 1025.3 1004.0
12 12.10 СВ 4 24 км 10/10 300 м
[Sc]
+9.2 +4.5 72 +6 +6 по сезону 1026.0 1004.7 +7.5 +13.5
15 12.10 В 5 24 км 10/10 100 м
[]
+10.6 +7.2 79 +8 +8 по сезону 1026.9 1005.6
18 12.10 В 6 12 км слабая морось 10/10 50 м
[Frnb]
+13.2 +10.4 83 +11 +11 по сезону 1025.5 1004.3 +7.5 +13.2 0.0
21 12.10 В 6 24 км 10/10 300 м
[]
+14.4 +11.7 84 +13 +13 тепло 1024.8 1003.6
00 13.10 В 4 24 км {морось} 10/10 300 м
[Sc]
+14.8 +12.2 84 +14 +14 тепло 1024.7 1003.6 +8.0 +14.8 0.0
03 13.10 ЮВ 4 24 км 10/10 300 м
[]
+14.8 +12.2 84 +14 +14 тепло 1024.1 1003.0
06 13.10 ЮВ 3 24 км {морось} 10/10 600 м
[Sc]
+14.2 +12.7 91 +13 +13 тепло 1023.9 1002.8 +8.0 +15.0 0.0 17
09 13.10 ЮВ 3 24 км 10/10 600 м
[]
+14.5 +12.2 86 +14 +14 тепло 1023.6 1002.6
12 13.10 ЮВ 4 24 км {ливн. осадки} 10/10 300 м
[Cu Sc]
+14.6 +12.4 87 +13 +13 тепло 1023.4 1002.4 +13.8 +15.0 0.0
15 13.10 ЮВ 4 24 км 10/10 100 м
[]
+15.3 +12.8 85 +14 +14 тепло 1023.1 1002.1
18 13.10 Ю 2 19 км в посл. час дождь 10/10 300 м
[Cu Sc]
+17.4 +14.5 83 +18 +18 тепло 1021.6 1000.7 +12.8 +17.4 0.4
21 13.10 ЮВ 3 24 км 9/9 1500 м
[]
+17.9 +14.0 78 +18 +18 тепло 1020.8 999.9
00 14.10 ЮВ 2 24 км 8/1 1000 м
[Sc Ac As]
+17.1 +13.7 80 +17 +17 тепло 1021.3 1000.4 +14.2 +18.8
03 14.10 С 1 24 км 4/4 1500 м
[]
+15.2 +13.6 90 +16 +16 тепло 1021.7 1000.7
06 14.10 С 1 9000 м дымка 1/1 600 м
[Sc]
+13.7 +13.0 96 +15 +15 тепло 1021.4 1000.5 +12.2 +18.8 14
09 14.10 Ю 2 19 км 6/0 2000 м
[]
+13.7 +12.9 95 +13 +13 тепло 1021.6 1000.7
12 14.10 З 2 12 км слабый дождь 10/10 1000 м
[Sc]
+14.7 +13.5 93 +14 +14 тепло 1022.8 1001.8 +12.1 +18.8 0.0
15 14.10 ЮЗ 1 14 км 10/10 600 м
[]
+16.2 +14.4 89 +17 +17 тепло 1023.2 1002.2
18 14.10 С 1 24 км {дождь} 10/10 600 м
[Sc]
+17.9 +13.6 76 +19 +19 тепло 1021.3 1000.4 +12.1 +18.3 0.4
21 14.10 СВ 2 12 км 10/10 600 м
[]
+17.8 +14.2 79 +19 +19 тепло 1020.7 999.8
00 15.10 ЮВ 3 8000 м слабый дождь 10/0 100 м
[As op]
+15.5 +14.7 95 +15 +15 тепло 1019.6 998.7 +12.1 +18.8 4
03 15.10 ЮВ 4 9000 м 10/10 100 м
[]
+15.1 +14.5 96 +14 +14 тепло 1017.2 996.3
06 15.10 ЮВ 4 9000 м слабый дождь 10/6 100 м
[Sc Ac As]
+15.1 +14.4 96 +14 +14 тепло 1013.5 992.7 +12.1 +18.8 4 6
09 15.10 ЮВ 3 9000 м 10/10 200 м
[]
+15.3 +14.7 96 +15 +15 тепло 1008.9 988.2
12 15.10 Ю 4 19 км {дождь} 9/6 600 м
[Sc Cc]
+17.1 +15.8 92 +17 +17 тепло 1005.9 985.4 +15.0 +18.8 2
15 15.10 ЮЗ 6 24 км 10/10 600 м
[]
+22.2 +19.1 83 +28 +28 душно 1003.6 983.2
18 15.10 ЮЗ 11 24 км {дождь} 9/6 600 м
[Cu Sc Ac As]
+23.4 +18.4 74 +30 +30 очень
душно
1000.3 980.0 +15.0 +24.4 0.0
21 15.10 З 14 24 км 9/9 600 м
[]
+18.4 +13.2 72 +17 +17 тепло 1002.4 982.0
00 16.10 СЗ 11 24 км {ливн. осадки, дождь} 5/5 600 м
[Cu Sc]
+11.6 +6.2 69 +8 +8 по сезону 1009.8 989.0 +11.6 +24.4 5
03 16.10 СЗ 9 24 км 8/8 600 м
[]
+9.1 +3.6 68 +5 +5 по сезону 1015.0 994.2
06 16.10 С 6 24 км 9/9 1000 м
[Sc]
+7.5 +3.2 74 +4 +4 по сезону 1017.9 997.0 +7.5 +24.4 203
09 16.10 СЗ 4 24 км 9/9 600 м
[]
+5.8 +2.5 79 +2 +2 прохладно 1020.1 999.1
12 16.10 С 3 24 км {ливн. осадки} 9/9 300 м
[Cu Sc]
+4.9 +1.3 77 +1 +1 прохладно 1022.1 1000.9 +4.7 +24.4 0.0
15 16.10 С 4 24 км 9/9 600 м
[]
+6.4 +0.8 67 +3 +3 прохладно 1023.9 1002.6
18 16.10 С 5 24 км {ливн. осадки} 8/8 1000 м
[Cu Sc]
+9.0 +1.2 58 +6 +7 холодно 1023.8 1002.5 +4.4 +9.0 0.0
21 16.10 С 5 24 км 3/3 1000 м
[]
+9.9 -2.1 43 +7 +8 прохладно 1024.1 1002.8
00 17.10 СВ 3 24 км ясно +5.9 -1.7 58 +3 +3 прохладно 1025.2 1003.8 +4.4 +10.4
03 17.10 ЮВ 1 24 км ясно +5.8 -1.4 60 +5 +5 по сезону 1025.1 1003.7
06 17.10 З 3 24 км ясно +2.9 -0.9 76 -1 -1 холодно 1025.0 1003.6 +2.8 +10.4 16
09 17.10 З 2 24 км ясно +3.6 -1.5 69 +2 +2 по сезону 1024.3 1003.0
12 17.10 ЮЗ 2 24 км 5/1 600 м
[Cu hum Ac trans Ci fib]
+6.1 +0.2 66 +5 +5 по сезону 1023.5 1002.2 +2.5 +10.4
15 17.10 ЮЗ 9 24 км 3/3 1500 м
[]
+15.0 +4.3 49 +13 +13 тепло 1021.7 1000.6
18 17.10 ЮЗ 8 24 км 5/1 1000 м
[Cu hum Ac trans Ci fib]
+18.0 +3.5 38 +17 +18 тепло 1019.4 998.3 +2.5 +18.6
21 17.10 ЮЗ 8 24 км 3/0
[]
+18.8 +6.1 43 +18 +19 тепло 1017.5 996.5
00 18.10 ЮЗ 6 24 км 4/0
[Ci fib]
+15.4 +7.5 59 +14 +14 тепло 1019.2 998.1 +2.5 +19.6
03 18.10 З 3 24 км ясно +12.6 +6.3 65 +12 +12 тепло 1020.5 999.5
06 18.10 ЮЗ 2 24 км ясно +11.8 +5.9 67 +11 +11 тепло 1021.1 1000.1 +2.5 +19.6 191

 

Местоположение метеостанции Toronto (Канада): широта 43.67 долгота -79.63 высота над уровнем моря 173 м.

В архиве по умолчанию представлена погода в Toronto за последнюю неделю. Архивные данные за месяц целиком и за предыдущие месяцы, начиная с января 2011 года, Вы можете получить, выбрав интересующий диапазон дат из раскрывающегося списка и нажав кнопку "Ввод!".

Внимание! Время в таблицах - всемирное. Для получения местного времени необходимо прибавить поправку, которая в Toronto равна -5 ч.

Смотрите также архив погоды в соседних городах и на ближайших метеорологических станциях:

Погода в Toronto Aes Hq (Канада) (18 км)
Погода в Toronto City (Канада) (19 км)
Погода в Toronto Island Arpt (Канада) (19 км)
Погода в Toronto Buttonville (Канада) (31 км)
Погода в Buttonville (Канада) (31 км)
Погода в Burlington Piers (Канада) (43 км)
Погода в Hamilton Rbg Cs (Канада) (49 км)
Погода в Guelph Turfgrass (Канада) (49 км)
Погода в Vineland Station Rc (Канада) (58 км)
Погода в Port Weller (Канада) (58 км)

Пояснения к столбцам:

Ветер - указаны скорость ветра в м/с - средняя за 10 мин, порывы в срок и между сроками (в фигурных скобках) и направление, откуда дует ветер: С - северный, СВ - северо-восточный, В - восточный, ЮВ - юго-восточный, Ю - южный, ЮЗ - юго-западный, З - западный, СЗ - северо-западный.
Видимость - горизонтальная дальность видимости в метрах или километрах. При видимости от 1 до 10 км при отсутствии осадков обычно наблюдается дымка, при ухудшении видимости до 1 км и менее - туман. В сухую погоду видимость может ухудшаться дымом, пылью или мглою.
Явления - указаны атмосферные явления, наблюдавшиеся в срок или в последний час перед сроком; фигурными скобками обозначены явления, наблюдавшиеся между сроками (за 1-3 часа до срока); квадратными скобками обозначены град или гололедные отложения с указанием их диаметра в мм.
Облачность - указаны через наклонную черту общая и нижняя облачность в баллах и высота нижней границы облаков в метрах; квадратными скобками обозначены формы облаков: Ci - перистые, Cs - перисто-слоистые, Cc - перисто-кучевые, Ac - высококучевые, As - высокослоистые, Sc - слоисто-кучевые, Ns - слоисто-дождевые, Cu - кучевые, Cb - кучево-дождевые. Подробнее классификацию облаков см. в Атласе облаков (PDF).
T - Температура воздуха - температура, измеренная на высоте 2 м над землей.
Td - Температура точки росы - температура, при понижении до которой содержащийся в воздухе водяной пар достигнет насыщения.
f - Относительная влажность воздуха - влажноcть воздуха, измеренная на высоте 2 м над землей.
Te - Эффективная температура - температура, которую ощущает одетый по сезону человек в тени. Характеристика душности погоды. При расчете учитывается влияние влажности воздуха и скорости ветра на теплоощущения человека.
Tes - Эффективная температура на солнце - температура, которую ощущает человек, с поправкой на солнечный нагрев. Характеристика знойности погоды. Зависит от высоты солнца над горизонтом, облачности и скорости ветра. Ночью, в пасмурную погоду, а также при ветре 12 м/с и более поправка равна нулю.
P - Атмосферное давление - приведенное к уровню моря атмосферное давление.
Po - Атмосферное давление - измеренное на уровне метеостанции атмосферное давление.
Tmin - Минимальная температура - минимум температуры воздуха на высоте 2 м над землей.
Tmax - Максимальная температура - максимум температуры воздуха на высоте 2 м над землей.
R - Количество осадков - Количество выпавших осадков за период времени, мм. При наведении курсора мыши на число - период времени, за который выпало указанное количество осадков.
R24 - Количество осадков - Количество выпавших осадков за 24 часа, мм.
S - Снежный покров - Высота снежного покрова, см. При наведении курсора мыши на число - состояние снежного покрова и степень покрытия местности в баллах.